Probability
0 0 0 0 0 0 0 0 0 0 0 0 0 0 0 0 0 0 0 0 0 0 0 0 0 0 0 0 0 0 0 0 0 0 0 1 2 2
0 0 0 0 0 0 0 0 0 0 0 0 0 0 0 0 0 0 0 0 0 0 0 0 0 0 0 0 0 0 0 0 0 0 0 0 1 1
0 0 0 0 0 0 0 0 0 0 0 0 0 0 0 0 0 0 0 0 0 0 0 0 0 0 0 0 0 0 0 0 0 0 0 0 0 0
0 0 0 0 0 0 0 0 0 0 0 0 0 0 0 0 0 0 0 0 0 0 0 0 0 0 0 0 0 0 0 0 0 0 0 0 0 0
0 0 0 0 0 0 0 0 0 0 0 0 0 0 0 0 0 0 0 0 0 0 0 0 0 0 0 0 0 0 0 0 0 0 0 0 0 0
0 0 0 0 0 0 0 0 0 0 0 0 0 0 0 0 0 0 0 0 0 0 0 0 0 0 0 0 0 0 0 0 0 0 0 0 0 0
0 0 0 0 0 0 0 0 0 0 0 0 0 0 0 0 0 0 0 0 0 0 0 0 0 0 0 0 0 0 0 0 0 0 0 0 0 0
0 0 0 0 0 0 0 0 0 0 0 0 0 0 0 0 0 0 0 0 0 0 0 0 0 0 0 0 0 0 0 0 0 0 0 0 0 0
0 0 0 0 0 0 0 0 0 0 0 0 0 0 0 0 0 0 0 0 0 0 0 0 0 0 0 0 0 0 0 0 0 0 0 0 0 0
0 0 0 0 0 0 0 0 0 0 0 0 0 0 0 0 0 0 0 0 0 0 0 0 0 0 0 0 0 0 0 0 0 0 0 0 0 0
0 0 0 0 0 0 0 0 0 0 0 0 0 0 0 0 0 0 0 0 0 0 0 0 0 0 0 0 0 0 0 0 0 0 0 0 0 0
0 0 0 0 0 0 0 0 0 0 0 0 0 0 0 0 0 0 0 0 0 0 0 0 0 0 0 0 0 0 0 0 0 0 0 0 0 0
0 0 0 0 0 0 0 0 0 0 0 0 0 0 0 0 0 0 0 0 0 0 0 0 0 0 0 0 0 0 0 0 0 0 0 0 0 0
0 0 0 0 0 0 0 0 0 0 0 0 0 0 0 0 0 0 0 0 0 0 0 0 0 0 0 0 0 0 0 0 0 0 0 0 0 0
0 0 0 0 0 0 0 0 0 0 0 0 0 0 0 0 0 0 0 0 0 0 0 0 0 0 0 0 0 0 0 0 0 0 0 0 0 0
0 0 0 0 0 0 0 0 0 0 0 0 0 0 0 0 0 0 0 0 0 0 0 0 0 0 0 0 0 0 0 0 0 0 0 0 0 0
0 0 0 0 0 0 0 0 0 0 0 0 0 0 0 0 0 0 0 0 0 0 0 0 0 0 0 0 0 0 0 0 0 0 0 0 0 0
0 0 0 0 0 0 0 0 0 0 0 0 0 0 0 0 0 0 0 0 0 0 0 0 0 0 0 0 0 0 0 0 0 0 0 0 0 0
0 0 0 0 0 0 0 0 0 0 0 0 0 0 0 0 0 0 0 0 0 0 0 0 0 0 0 0 0 0 0 0 0 0 0 0 0 0
0 0 0 0 0 0 0 0 0 0 0 0 0 0 0 0 0 0 0 0 0 0 0 0 0 0 0 0 0 0 0 0 0 0 0 0 0 0
0 0 0 0 0 0 0 0 0 0 0 0 0 0 0 0 0 0 0 0 0 0 0 0 0 0 0 0 0 0 0 0 0 0 0 0 0 0
0 0 0 0 0 0 0 0 0 0 0 0 0 0 0 0 0 0 0 0 0 0 0 0 0 0 0 0 0 0 0 0 0 0 0 0 0 0
0 0 0 0 0 0 0 0 0 0 0 0 0 0 0 0 0 0 0 0 0 0 0 0 0 0 0 0 0 0 0 0 0 0 0 0 0 0
Wind_Speed
3 3 3 2 2 2 2 3 2 3 3 3 2 3 3 4 2 4 6 10 9 9 10 10 11 11 11 12 12 13 14 15 15 15 15 15 15 15
2 3 3 2 2 2 3 2 2 1 2 3 3 3 3 4 4 4 6 8 9 9 9 9 9 10 10 11 11 12 12 13 13 14 14 14 14 14
5 4 4 3 3 3 3 3 2 2 3 3 3 4 4 4 4 3 3 3 6 8 8 8 8 9 9 10 10 10 11 11 12 12 12 13 13 13
4 4 4 4 4 3 3 3 2 3 3 5 4 4 4 4 3 3 3 3 4 7 6 7 7 7 8 8 8 9 9 10 10 10 11 11 12 12
4 5 5 5 5 4 4 3 2 3 3 4 4 3 3 3 4 3 3 2 2 5 5 5 6 6 6 7 7 7 7 8 9 9 10 10 10 10
4 4 4 5 5 5 4 4 4 4 4 4 4 4 4 4 4 3 3 2 2 2 3 3 4 4 5 5 5 6 6 6 7 7 8 8 9 9
5 4 4 3 3 2 2 4 5 4 4 4 4 4 4 4 4 3 3 2 2 1 2 2 2 2 3 3 3 3 4 4 5 5 6 6 7 7
5 5 5 5 5 4 2 1 2 4 5 5 4 5 5 5 4 4 3 3 2 2 2 1 1 1 0 1 4 4 3 3 3 4 4 5 5 6
5 5 4 4 6 5 6 5 3 0 1 3 4 4 4 5 5 5 4 3 1 2 2 1 1 1 1 2 4 3 2 2 2 2 2 3 3 4
5 5 5 6 5 4 5 5 5 4 3 4 3 2 2 3 4 3 3 3 2 2 2 2 1 1 1 2 4 3 2 2 2 1 1 1 1 2
5 5 4 5 6 4 5 5 5 4 3 3 5 4 5 3 2 3 4 4 3 3 3 2 2 2 1 2 3 5 3 2 2 2 1 1 3 4
5 5 4 3 8 6 6 5 5 4 5 4 4 4 4 4 3 4 4 3 2 2 3 2 2 2 2 2 2 3 4 4 4 2 1 1 4 4
5 5 4 7 7 6 5 4 3 3 4 4 4 4 3 3 4 3 3 3 3 2 2 3 2 2 2 1 1 1 1 2 3 3 3 2 2 3
5 4 5 9 8 7 4 3 4 3 3 3 3 3 3 3 3 2 2 2 1 2 2 3 2 2 2 3 2 2 2 1 1 1 1 3 3 3
4 4 7 9 8 6 6 6 6 4 3 4 3 3 2 2 2 2 2 2 1 0 1 3 3 3 3 3 2 1 2 1 1 2 2 1 1 2
4 6 8 8 5 4 6 6 5 4 3 3 3 2 2 3 3 3 3 3 2 1 1 2 2 3 3 2 2 2 2 1 1 2 2 2 2 2
6 5 5 5 5 5 4 4 4 4 4 3 3 3 3 3 3 3 3 3 3 2 2 2 1 1 2 2 3 3 2 2 2 2 2 2 2 2
7 6 6 6 6 6 5 5 5 5 5 4 4 4 4 4 3 3 3 3 3 3 2 2 3 3 2 1 2 3 2 2 2 2 3 3 3 2
7 6 6 6 6 6 6 6 5 5 4 4 4 4 4 4 4 4 4 4 4 3 3 3 3 4 4 3 2 3 3 2 3 3 3 4 4 3
7 6 6 6 6 6 6 6 5 5 5 5 5 5 5 5 5 5 5 5 4 4 4 4 4 4 4 3 2 2 4 4 3 4 3 4 4 3
7 7 7 6 6 6 5 5 6 5 5 5 5 5 5 5 5 5 5 5 5 4 5 4 3 2 2 1 2 3 3 4 4 4 4 4 4 5
7 7 6 6 6 5 5 5 6 6 6 6 5 5 5 5 6 6 5 5 5 5 4 3 3 3 3 4 4 4 3 3 4 5 6 6 5 5
7 7 6 6 6 5 5 6 7 6 6 6 6 6 6 6 5 5 5 5 4 4 4 3 3 3 3 4 4 4 5 4 3 4 4 7 9 10
Wind_Direction
203 194 190 165 188 191 186 197 189 168 151 136 129 111 110 93 96 97 85 76 67 63 60 58 56 54 55 53 53 52 52 50 47 48 52 54 54 55
193 197 186 178 171 180 193 206 228 210 145 128 132 136 115 118 105 95 88 94 79 70 66 63 60 58 58 56 55 53 52 51 49 47 48 49 51 52
186 188 184 176 176 178 185 190 196 191 148 130 129 137 143 132 125 118 117 106 95 81 73 69 66 63 61 60 58 55 52 51 50 49 47 47 47 49
191 186 181 169 177 176 183 191 180 179 167 148 148 149 151 139 132 131 122 109 101 94 84 73 69 67 64 64 62 59 55 51 48 47 46 46 46 46
190 190 185 174 174 168 185 184 172 169 166 164 149 143 155 154 149 146 133 128 121 124 118 98 77 70 68 67 67 64 60 56 51 46 44 44 43 43
181 185 185 181 181 175 180 178 175 173 174 166 156 162 164 170 175 165 157 151 150 138 121 121 115 106 86 74 73 70 66 62 57 49 44 43 42 41
180 181 167 124 79 134 186 182 179 182 178 171 167 171 174 181 190 181 175 163 148 163 158 151 155 148 135 121 99 81 77 70 62 54 48 42 40 38
181 177 154 151 134 138 123 132 208 201 188 182 184 191 187 186 181 187 184 192 182 162 193 166 166 148 94 83 90 106 106 93 75 65 60 49 40 37
184 178 164 155 165 170 155 163 176 9 260 224 205 202 192 182 185 194 200 212 206 160 201 203 182 177 138 88 99 117 125 119 103 84 67 53 41 34
187 185 178 174 177 177 172 178 175 168 186 220 219 199 187 177 190 197 194 187 166 165 208 231 198 202 170 136 123 133 141 153 147 124 81 32 6 18
180 177 179 177 138 171 188 180 173 155 118 60 34 62 75 92 151 170 178 191 200 186 191 222 211 213 201 189 148 156 159 160 166 163 160 321 304 271
176 173 165 169 146 179 200 189 188 174 161 152 143 138 149 150 177 201 198 211 214 196 168 210 202 217 223 186 174 167 170 169 182 185 204 298 314 282
182 182 167 157 161 186 222 207 175 170 173 172 166 160 162 163 179 202 210 228 233 223 163 202 218 223 243 215 206 196 202 200 192 184 182 202 297 299
190 184 160 157 169 179 197 141 130 166 182 178 181 181 178 175 179 183 187 201 275 267 194 208 227 229 233 239 230 197 202 231 249 248 229 176 201 219
184 149 145 157 168 177 174 161 169 193 192 193 196 197 192 174 161 158 164 154 134 147 217 231 238 233 240 253 256 238 232 215 235 257 261 260 252 236
180 147 148 157 173 161 161 177 197 200 204 207 198 180 165 167 177 182 186 185 178 168 179 225 230 227 242 253 250 248 247 234 206 233 253 259 260 261
168 164 169 172 178 180 184 189 192 190 202 205 192 185 185 189 191 193 200 204 213 204 187 181 180 197 261 261 244 246 242 233 228 241 250 254 248 254
168 182 188 190 191 190 191 193 197 199 202 199 198 196 194 195 196 197 203 211 214 211 210 199 191 193 205 224 280 251 243 249 250 246 252 260 260 257
186 198 200 199 199 199 200 200 201 200 197 197 199 198 198 198 198 199 203 211 217 218 217 213 213 220 230 233 191 235 250 252 251 249 252 263 272 276
205 205 207 207 204 202 202 202 200 195 193 198 201 199 200 201 203 205 207 212 217 218 218 217 223 233 251 272 269 226 220 244 253 258 266 278 280 275
204 210 209 208 206 204 203 200 197 196 196 198 200 201 202 204 209 211 213 212 220 220 223 224 222 224 251 263 252 244 217 210 251 268 274 274 278 273
205 209 209 207 203 201 198 196 196 196 196 199 200 202 203 207 211 212 212 209 215 222 227 216 183 196 218 234 249 254 252 228 216 229 251 265 273 276
206 208 207 203 200 197 195 198 199 199 199 200 199 201 201 204 210 211 211 213 215 218 216 204 200 212 228 234 243 252 256 255 253 246 244 226 232 250